| time (UTC) | temp F | wind direction | speed MPH | gust MPH | rain 1hr in | rain 24hr in | rain mn in | humidity % | barometer mb |
| 20260904200025 | 97 | 273 | 10.0 | 14.0 | 0.00 | 0.09 | 0.00 | 30 | 1013.1 |
| 20260904194524 | 96 | 248 | 2.0 | 8.0 | 0.00 | 0.09 | 0.00 | 31 | 1013.4 |
| 20260904193034 | 95 | 232 | 2.0 | 5.0 | 0.00 | 0.09 | 0.00 | 32 | 1013.9 |
| 20260904191521 | 95 | 246 | 3.0 | 15.0 | 0.00 | 0.09 | 0.00 | 34 | 1014.1 |
| 20260904190032 | 92 | 275 | 1.0 | 6.0 | 0.00 | 0.09 | 0.00 | 35 | 1014.3 |
| 20260904184514 | 95 | 273 | 4.0 | 11.0 | 0.00 | 0.09 | 0.00 | 32 | 1014.4 |
| 20260904183011 | 92 | 300 | 2.0 | 6.0 | 0.00 | 0.09 | 0.00 | 36 | 1014.6 |
| 20260904181508 | 91 | 250 | 1.0 | 10.0 | 0.00 | 0.09 | 0.00 | 37 | 1014.9 |
| 20260904180006 | 91 | 360 | 4.0 | 10.0 | 0.00 | 0.09 | 0.00 | 37 | 1015.1 |
| 20260904174502 | 91 | 221 | 1.0 | 4.0 | 0.00 | 0.09 | 0.00 | 38 | 1015.4 |
| 20260904173100 | 92 | 175 | 2.0 | 8.0 | 0.00 | 0.09 | 0.00 | 37 | 1015.6 |
| 20260904171554 | 89 | 222 | 1.0 | 9.0 | 0.00 | 0.09 | 0.00 | 41 | 1015.5 |
| 20260904170053 | 88 | 212 | 4.0 | 7.0 | 0.00 | 0.09 | 0.00 | 39 | 1015.7 |
| 20260904164547 | 87 | 205 | 2.0 | 8.0 | 0.00 | 0.09 | 0.00 | 44 | 1016.0 |
| 20260904163042 | 86 | 209 | 4.0 | 8.0 | 0.00 | 0.09 | 0.00 | 44 | 1016.0 |
| 20260904161543 | 84 | 360 | 3.0 | 10.0 | 0.00 | 0.09 | 0.00 | 46 | 1016.0 |
| 20260904160038 | 84 | 187 | 3.0 | 10.0 | 0.00 | 0.09 | 0.00 | 48 | 1016.1 |
| 20260904154533 | 83 | 179 | 4.0 | 7.0 | 0.00 | 0.09 | 0.00 | 48 | 1016.1 |
| 20260904153037 | 82 | 196 | 5.0 | 7.0 | 0.00 | 0.09 | 0.00 | 51 | 1016.1 |
| 20260904151529 | 81 | 204 | 1.0 | 6.0 | 0.00 | 0.09 | 0.00 | 55 | 1016.3 |
| 20260904150028 | 78 | 225 | 6.0 | 8.0 | 0.00 | 0.09 | 0.00 | 56 | 1016.2 |
| 20260904144528 | 78 | 242 | 3.0 | 7.0 | 0.00 | 0.09 | 0.00 | 58 | 1016.1 |
| 20260904143023 | 77 | 360 | 2.0 | 4.0 | 0.00 | 0.09 | 0.00 | 59 | 1016.3 |
| 20260904141521 | 76 | 360 | 2.0 | 6.0 | 0.00 | 0.09 | 0.00 | 60 | 1016.2 |
| 20260904140019 | 76 | 360 | 4.0 | 6.0 | 0.00 | 0.09 | 0.00 | 61 | 1016.0 |
| 20260904134521 | 74 | 320 | 4.0 | 9.0 | 0.00 | 0.09 | 0.00 | 64 | 1015.8 |
| 20260904133013 | 74 | 360 | 6.0 | 11.0 | 0.00 | 0.09 | 0.00 | 64 | 1015.6 |
| 20260904131510 | 74 | 360 | 7.0 | 14.0 | 0.00 | 0.09 | 0.00 | 62 | 1015.3 |
| 20260904130014 | 75 | 360 | 11.0 | 15.0 | 0.00 | 0.09 | 0.00 | 60 | 1015.1 |
| 20260904124505 | 75 | 360 | 6.0 | 11.0 | 0.00 | 0.09 | 0.00 | 59 | 1015.1 |
| 20260904123012 | 75 | 355 | 7.0 | 10.0 | 0.00 | 0.09 | 0.00 | 59 | 1014.9 |
| 20260904121503 | 75 | 355 | 7.0 | 9.0 | 0.00 | 0.09 | 0.00 | 60 | 1014.8 |
| 20260904120001 | 75 | 350 | 6.0 | 10.0 | 0.00 | 0.09 | 0.00 | 60 | 1014.8 |
| 20260904114601 | 75 | 355 | 9.0 | 12.0 | 0.00 | 0.09 | 0.00 | 60 | 1014.8 |
| 20260904113059 | 74 | 351 | 7.0 | 10.0 | 0.00 | 0.09 | 0.00 | 61 | 1014.8 |
| 20260904111557 | 75 | 355 | 11.0 | 16.0 | 0.00 | 0.09 | 0.00 | 60 | 1014.7 |
| 20260904110057 | 75 | 360 | 14.0 | 19.0 | 0.00 | 0.09 | 0.00 | 59 | 1014.6 |
| 20260904104551 | 76 | 342 | 14.0 | 19.0 | 0.00 | 0.09 | 0.00 | 57 | 1014.6 |
| 20260904103046 | 77 | 344 | 12.0 | 17.0 | 0.00 | 0.09 | 0.00 | 52 | 1014.4 |
| 20260904101544 | 78 | 355 | 10.0 | 13.0 | 0.00 | 0.09 | 0.00 | 50 | 1014.1 |
| 20260904100047 | 78 | 360 | 10.0 | 15.0 | 0.00 | 0.09 | 0.00 | 49 | 1014.1 |
| 20260904094543 | 78 | 355 | 9.0 | 12.0 | 0.00 | 0.09 | 0.00 | 49 | 1014.1 |
| 20260904093042 | 78 | 63 | 10.0 | 16.0 | 0.00 | 0.09 | 0.00 | 50 | 1014.2 |
| 20260904091541 | 78 | 360 | 13.0 | 20.0 | 0.00 | 0.09 | 0.00 | 50 | 1014.2 |
| 20260904090039 | 78 | 360 | 11.0 | 16.0 | 0.00 | 0.09 | 0.00 | 50 | 1014.0 |
| 20260904084537 | 78 | 144 | 13.0 | 20.0 | 0.00 | 0.09 | 0.00 | 52 | 1014.0 |
| 20260904083038 | 79 | 360 | 16.0 | 20.0 | 0.00 | 0.09 | 0.00 | 52 | 1014.0 |
| 20260904081546 | 79 | 360 | 13.0 | 21.0 | 0.00 | 0.09 | 0.00 | 52 | 1013.9 |
| 20260904080034 | 79 | 345 | 14.0 | 18.0 | 0.00 | 0.09 | 0.00 | 52 | 1014.1 |
| 20260904074534 | 79 | 360 | 15.0 | 19.0 | 0.00 | 0.09 | 0.00 | 53 | 1014.2 |
| 20260904073029 | 80 | 360 | 12.0 | 22.0 | 0.00 | 0.09 | 0.00 | 50 | 1014.3 |
| 20260904071525 | 81 | 360 | 16.0 | 23.0 | 0.00 | 0.09 | 0.00 | 47 | 1014.3 |
| 20260904070024 | 82 | 360 | 11.0 | 14.0 | 0.00 | 0.09 | 0.00 | 47 | 1014.2 |
| 20260904064522 | 82 | 360 | 10.0 | 13.0 | 0.00 | 0.09 | 0.00 | 47 | 1014.2 |
| 20260904063022 | 82 | 360 | 8.0 | 14.0 | 0.00 | 0.09 | 0.00 | 47 | 1014.2 |
| 20260904061537 | 82 | 360 | 11.0 | 15.0 | 0.00 | 0.09 | 0.00 | 47 | 1014.2 |
| 20260904060022 | 82 | 360 | 7.0 | 13.0 | 0.00 | 0.09 | 0.00 | 47 | 1014.2 |
| 20260904054522 | 81 | 360 | 7.0 | 13.0 | 0.00 | 0.09 | 0.00 | 48 | 1014.1 |
| 20260904053016 | 81 | 360 | 10.0 | 13.0 | 0.00 | 0.09 | 0.00 | 49 | 1014.1 |
| 20260904051514 | 81 | 360 | 9.0 | 13.0 | 0.00 | 0.09 | 0.00 | 49 | 1014.0 |
| 20260904050017 | 81 | 360 | 5.0 | 9.0 | 0.00 | 0.09 | 0.00 | 49 | 1013.7 |
| 20260904044510 | 80 | 360 | 3.0 | 4.0 | 0.00 | 0.09 | 0.09 | 50 | 1013.4 |
| 20260904043010 | 81 | 360 | 2.0 | 5.0 | 0.00 | 0.09 | 0.09 | 51 | 1013.5 |
| 20260904041508 | 82 | 344 | 0.0 | 3.0 | 0.00 | 0.09 | 0.09 | 47 | 1013.5 |
| 20260904040009 | 82 | 360 | 7.0 | 11.0 | 0.00 | 0.09 | 0.09 | 48 | 1013.4 |
| 20260904034508 | 82 | 360 | 10.0 | 13.0 | 0.00 | 0.09 | 0.09 | 47 | 1013.4 |
| 20260904033009 | 82 | 360 | 9.0 | 12.0 | 0.00 | 0.09 | 0.09 | 47 | 1013.2 |
| 20260904031507 | 82 | 360 | 10.0 | 15.0 | 0.00 | 0.09 | 0.09 | 49 | 1013.0 |
| 20260904030015 | 83 | 360 | 9.0 | 12.0 | 0.00 | 0.09 | 0.09 | 48 | 1012.8 |
| 20260904024507 | 83 | 360 | 8.0 | 12.0 | 0.00 | 0.09 | 0.09 | 47 | 1012.6 |
| 20260904023005 | 84 | 360 | 8.0 | 11.0 | 0.00 | 0.09 | 0.09 | 47 | 1012.5 |
| 20260904021508 | 84 | 344 | 8.0 | 10.0 | 0.00 | 0.09 | 0.09 | 46 | 1012.3 |
| 20260904020004 | 84 | 338 | 8.0 | 10.0 | 0.00 | 0.09 | 0.09 | 46 | 1012.3 |
| 20260904014506 | 85 | 360 | 7.0 | 10.0 | 0.00 | 0.09 | 0.09 | 45 | 1012.2 |
| 20260904013003 | 85 | 346 | 7.0 | 12.0 | 0.00 | 0.09 | 0.09 | 45 | 1012.2 |
| 20260904011503 | 85 | 360 | 9.0 | 13.0 | 0.00 | 0.09 | 0.09 | 44 | 1012.0 |
| 20260904010001 | 85 | 360 | 11.0 | 15.0 | 0.00 | 0.09 | 0.09 | 45 | 1011.9 |
| 20260904004501 | 85 | 348 | 13.0 | 17.0 | 0.02 | 0.09 | 0.09 | 45 | 1011.9 |
| 20260904003000 | 86 | 360 | 11.0 | 16.0 | 0.06 | 0.09 | 0.09 | 46 | 1011.9 |
| 20260904001600 | 84 | 125 | 13.0 | 17.0 | 0.09 | 0.09 | 0.09 | 46 | 1011.9 |
| 20260904000059 | 80 | 121 | 9.0 | 18.0 | 0.09 | 0.09 | 0.09 | 58 | 1012.0 |
| 20260903234558 | 75 | 360 | 9.0 | 13.0 | 0.07 | 0.07 | 0.07 | 72 | 1012.0 |
| 20260903233056 | 82 | 11 | 7.0 | 15.0 | 0.03 | 0.03 | 0.03 | 63 | 1011.8 |
| 20260903231604 | 92 | 184 | 13.0 | 25.0 | 0.00 | 0.00 | 0.00 | 32 | 1011.7 |
| 20260903230054 | 97 | 209 | 14.0 | 23.0 | 0.00 | 0.00 | 0.00 | 29 | 1011.7 |
| 20260903224553 | 97 | 165 | 4.0 | 11.0 | 0.00 | 0.13 | 0.00 | 29 | 1011.4 |
| 20260903223052 | 97 | 157 | 8.0 | 11.0 | 0.00 | 0.13 | 0.00 | 29 | 1011.7 |
| 20260903221552 | 95 | 130 | 7.0 | 15.0 | 0.00 | 0.13 | 0.00 | 31 | 1011.6 |
| 20260903220058 | 94 | 138 | 8.0 | 15.0 | 0.00 | 0.13 | 0.00 | 32 | 1011.8 |
| 20260903214548 | 93 | 140 | 12.0 | 20.0 | 0.00 | 0.13 | 0.00 | 32 | 1011.9 |
| 20260903213047 | 95 | 360 | 12.0 | 21.0 | 0.00 | 0.13 | 0.00 | 29 | 1011.8 |
| 20260903211548 | 99 | 315 | 2.0 | 12.0 | 0.00 | 0.13 | 0.00 | 25 | 1012.2 |
| 20260903210045 | 98 | 288 | 3.0 | 11.0 | 0.00 | 0.13 | 0.00 | 25 | 1012.5 |
| 20260903204542 | 100 | 289 | 9.0 | 13.0 | 0.00 | 0.13 | 0.00 | 25 | 1012.6 |
| 20260903203039 | 99 | 174 | 3.0 | 12.0 | 0.00 | 0.13 | 0.00 | 29 | 1012.7 |
| 20260903201537 | 99 | 311 | 11.0 | 17.0 | 0.00 | 0.13 | 0.00 | 26 | 1012.9 |